Hettinger, ND

12:11 AM MDT on April 26, 2017 (GMT -0600)
Hettinger Municipal

Weather History for KHEI - January, 2014

Change the Weather History Date:

Wednesday, January 22, 2014

  Actual Average Record
Temperature  
Mean Temperature 6 °F -  
Max Temperature 25 °F 28 °F 45 °F (2015)
Min Temperature -14 °F 6 °F -23 °F (2003)
Degree Days  
Heating Degree Days 59 48  
Month to date heating degree days 1024 1071  
Since 1 July heating degree days 4746 4650  
Moisture  
Dew Point 1 °F    
Average Humidity 75    
Maximum Humidity 92    
Minimum Humidity 62    
Precipitation  
Precipitation T in 0.01 in 0.15 in (2012)
Month to date precipitation 0.07 0.21  
Year to date precipitation 0.07 0.21  
Sea Level Pressure  
Sea Level Pressure 30.44 in    
Wind  
Wind Speed 12 mph (North)    
Max Wind Speed 32 mph    
Max Gust Speed 41 mph    
Visibility 8 miles    
Events Snow    
T = Trace of Precipitation, MM = Missing Value Source: NWS Daily Summary

Daily Weather History Graph

Daily Weather History Graph

Search for Another Location

Airport or City:

Trip Planner

Search our weather history database for the weather conditions in past years. The results will help you decide how hot, cold, wet, or windy it might be!

Date:

Astronomy

Jan. 22, 2014 Rise Set
Actual Time 7:23 AM MST 4:41 PM MST
Civil Twilight 6:50 AM MST 5:14 PM MST
Nautical Twilight 6:14 AM MST 5:51 PM MST
Astronomical Twilight 5:38 AM MST 6:26 PM MST
Moon 11:40 PM MST (1/22) 10:03 AM MST (1/22)
Length of Visible Light 10h 23m
Length of Day
9h 18m
Waning Gibbous, 65% of the Moon is Illuminated
Jan 22
Waning Gibbous
Jan 23
Last Quarter
Jan 30
New
Feb 6
First Quarter
Feb 14
Full

Hourly Weather History & Observations

Time (MST) Temp. Windchill Dew Point Humidity Pressure Visibility Wind Dir Wind Speed Gust Speed Precip Events Conditions
12:53 AM 23.0 °F 10.6 °F 18.0 °F 81% 30.17 in 10.0 mi WNW 13.8 mph - N/A   Overcast
1:53 AM 24.1 °F 8.7 °F 18.0 °F 77% 30.17 in 10.0 mi NW 23.0 mph 27.6 mph N/A   Overcast
2:53 AM 24.1 °F 8.7 °F 18.0 °F 77% 30.19 in 10.0 mi NW 23.0 mph 31.1 mph N/A   Overcast
3:53 AM 21.9 °F 6.2 °F 17.1 °F 82% 30.21 in 8.0 mi NNW 21.9 mph 29.9 mph 0.00 in Snow Light Snow
4:07 AM 21.9 °F 6.9 °F 17.1 °F 82% 30.11 in 10.0 mi NNW 19.6 mph 31.1 mph 0.00 in   Overcast
4:16 AM 21.9 °F 5.8 °F 17.1 °F 82% 30.11 in 9.0 mi NNW 23.0 mph 28.8 mph 0.00 in Snow Light Snow
4:31 AM 21.9 °F 4.8 °F 16.0 °F 78% 30.12 in 8.0 mi NNW 26.5 mph 33.4 mph 0.00 in Snow Light Snow
4:43 AM 21.0 °F 4.3 °F 16.0 °F 81% 30.13 in 5.0 mi North 24.2 mph 32.2 mph 0.00 in Snow Light Snow
4:50 AM 19.4 °F 2.8 °F 15.8 °F 86% 30.13 in 3.0 mi NNW 21.9 mph 32.2 mph 0.00 in Snow Light Snow
4:53 AM 19.9 °F 2.5 °F 15.1 °F 81% 30.25 in 4.0 mi North 25.3 mph 32.2 mph 0.00 in Snow Light Snow
5:53 AM 16.0 °F -2.5 °F 8.1 °F 71% 30.30 in 10.0 mi North 24.2 mph 34.5 mph 0.00 in   Overcast
6:46 AM 10.0 °F -9.1 °F 5.0 °F 80% 30.24 in 2.5 mi North 20.7 mph 28.8 mph 0.00 in Snow Light Snow
6:53 AM 10.9 °F -7.5 °F 6.1 °F 81% 30.38 in 3.0 mi North 19.6 mph 28.8 mph 0.00 in Snow Light Snow
7:14 AM 8.1 °F -10.2 °F 3.0 °F 80% 30.25 in 2.5 mi NNE 17.3 mph - 0.00 in Snow Light Snow
7:24 AM 8.1 °F -10.2 °F 3.0 °F 80% 30.26 in 5.0 mi NNE 17.3 mph - 0.00 in Snow Light Snow
7:53 AM 6.1 °F -12.2 °F 1.0 °F 80% 30.45 in 8.0 mi NNE 16.1 mph - 0.00 in   Overcast
8:53 AM 3.0 °F -16.1 °F -2.0 °F 80% 30.50 in 8.0 mi NE 16.1 mph - N/A   Overcast
9:53 AM 1.9 °F -16.9 °F -5.1 °F 72% 30.54 in 10.0 mi NNE 15.0 mph - N/A   Overcast
10:39 AM 1.9 °F -15.5 °F -5.1 °F 72% 30.39 in 10.0 mi NNE 12.7 mph - N/A   Scattered Clouds
10:53 AM 1.0 °F -16.6 °F -6.0 °F 72% 30.57 in 9.0 mi NNE 12.7 mph - N/A   Scattered Clouds
11:53 AM 1.9 °F -15.5 °F -7.1 °F 66% 30.57 in 10.0 mi NNE 12.7 mph - N/A   Clear
12:53 PM 1.9 °F -15.5 °F -9.0 °F 60% 30.55 in 10.0 mi NNE 12.7 mph - N/A   Clear
1:53 PM 3.0 °F -13.3 °F -8.0 °F 60% 30.56 in 10.0 mi NNE 11.5 mph - N/A   Clear
2:53 PM 3.0 °F -9.3 °F -8.0 °F 60% 30.58 in 10.0 mi NNE 6.9 mph - N/A   Clear
3:53 PM 1.9 °F -11.8 °F -9.0 °F 60% 30.61 in 10.0 mi NNE 8.1 mph - N/A   Clear
4:53 PM -2.9 °F -13.3 °F -9.9 °F 72% 30.66 in 10.0 mi NNE 4.6 mph - N/A   Clear
5:53 PM -5.1 °F -15.8 °F -11.0 °F 76% 30.70 in 10.0 mi NNE 4.6 mph - N/A   Clear
6:53 PM -5.1 °F - -11.9 °F 72% 30.74 in 10.0 mi Calm Calm - N/A   Clear
7:53 PM -8.0 °F - -14.1 °F 75% 30.77 in 10.0 mi Calm Calm - N/A   Clear
8:53 PM -9.0 °F -18.2 °F -15.0 °F 75% 30.79 in 10.0 mi NNE 3.5 mph - N/A   Clear
9:53 PM -9.9 °F - -16.1 °F 74% 30.80 in 10.0 mi Calm Calm - N/A   Clear
10:53 PM -13.0 °F - -18.0 °F 78% 30.82 in 10.0 mi Calm Calm - N/A   Clear
11:53 PM -11.9 °F - -17.0 °F 78% 30.82 in 10.0 mi Calm Calm - N/A   Clear